Location: Waco, TX
(31.5480°N, 97.1670°W)
Time: 07:55:11
(UTC-05:00)

ISS - Pass Details

Date: 03 January 2018
Orbit: 402 x 408 km, 51.6° (Epoch: 20 July)

Event Time Altitude Azimuth Distance (km) Brightness Sun altitude
Rises 11:50:36 0° 307° (NW) 2,371 -0.3 34.7°
Reaches altitude 10° 11:52:47 10° 299° (WNW) 1,505 -1.2 34.8°
Maximum altitude 11:55:57 38° 229° (SW) 659 -2.0 34.9°
Drops below altitude 10° 11:59:07 10° 160° (SSE) 1,497 0.4 35.1°
Sets 12:01:17 0° 152° (SSE) 2,357 1.0 35.1°
